Flag for United Kingdom

Past Weather in Dover, England, United Kingdom — Yesterday and Last 2 Weeks

Now
51 °F

Cool.


Feels Like: 44 °F
Forecast: 62 / 55 °F
Wind: 24 mph from Northwest

Location: Langdon Bay
Current Time: Sep 28, 2020 at 10:32:30 am
Latest Report: Sep 28, 2020 at 10:00 am
Visibility: N/A
Pressure29.87 "Hg
Humidity: 95%
Dew Point: 50 °F
Location of DoverLocation

Past Weather in Dover — Graph

°F

Dover Temperature Yesterday

Maximum temperature yesterday: 54 °F (at 4:00 pm)
Minimum temperature yesterday: 49 °F (at 2:00 am)
Average temperature yesterday: 51 °F

High & Low Weather Summary for the Past Weeks

 TemperatureHumidityPressure
High78 °F (Sep 14, 3:00 pm)100% (Sep 21, 8:00 am)30.37 "Hg (Sep 21, 8:00 am)
Low45 °F (Sep 26, 7:00 am)47% (Sep 14, 1:00 pm)29.32 "Hg (Sep 24, 7:00 pm)
Average60 °F82%29.94 "Hg
* Reported Sep 13 6:00 am — Sep 28 6:00 am, Dover. Weather by CustomWeather, © 2020

Note: Actual official high and low records may vary slightly from our data, if they occured in-between our weather recording intervals... More about our weather records

Dover Weather History for the Previous 24 Hours

Scroll right to see more
 ConditionsComfort  
Time TempWeatherWind HumidityBarometerVisibility
6:00 am
Mon, Sep 28
50 °FCool.31 mph96%29.81 "HgN/A
5:00 am50 °FCool.25 mph98%29.82 "HgN/A
4:00 am50 °FCool.28 mph98%29.82 "HgN/A
3:00 am50 °FCool.23 mph98%29.84 "HgN/A
2:00 am51 °FCool.24 mph97%29.84 "HgN/A
12:00 am51 °FCool.22 mph96%29.85 "HgN/A
11:00 pm
Sun, Sep 27
51 °FCool.22 mph97%29.84 "HgN/A
10:00 pm52 °FCool.22 mph97%29.84 "HgN/A
9:00 pm52 °FCool.22 mph96%29.84 "HgN/A
8:00 pm52 °FCool.22 mph95%29.84 "HgN/A
7:00 pm53 °FCool.21 mph94%29.83 "HgN/A
6:00 pm53 °FCool.22 mph95%29.81 "HgN/A
5:00 pm54 °FCool.23 mph93%29.79 "HgN/A
4:00 pm54 °FCool.22 mph92%29.78 "HgN/A
3:00 pm54 °FCool.24 mph95%29.78 "HgN/A
2:00 pm54 °FCool.25 mph97%29.77 "HgN/A
1:00 pm53 °FCool.24 mph98%29.77 "HgN/A
12:00 pm52 °FCool.23 mph99%29.75 "HgN/A
11:00 am51 °FCool.24 mph99%29.75 "HgN/A
10:00 am51 °FCool.24 mph99%29.73 "HgN/A
Weather by CustomWeather, © 2020

See weather overview